SCP
0 -0 -0 -0 -0 0 0 -0 0 0 -0 0 0 0 0 0 0 0 -0 0 0 0 0 0 0 0 0 0 0 0 -0 0 -0 0 0 0 0 0 0 1 0 0 0
-0 0 0 -0 -0 -0 0 -0 0 0 0 0 0 0 0 0 0 0 0 0 0 0 0 0 0 0 0 0 0 0 0 0 0 0 0 0 0 0 1 1 0 0 0
-0 0 0 0 0 0 0 0 0 0 0 0 0 0 0 0 0 0 0 0 0 0 0 0 0 0 0 0 0 0 0 0 0 0 0 0 0 0 1 1 1 0 0
0 0 0 0 0 0 0 0 0 0 0 0 0 0 0 0 0 0 0 0 0 0 0 0 0 0 0 0 0 1 0 0 0 0 0 0 0 1 0 0 1 0 0
0 0 1 1 0 0 0 0 0 0 0 0 0 0 0 0 0 0 0 0 0 0 0 0 0 0 0 0 0 1 0 1 0 0 0 0 0 0 0 0 1 0 0
-0 0 1 1 1 0 0 1 0 0 0 0 0 0 0 0 0 0 0 0 0 0 0 0 0 0 0 0 0 0 0 0 1 0 0 1 0 1 1 1 1 1 1
0 0 -0 1 1 1 1 1 1 0 0 0 0 0 0 0 0 0 0 0 0 0 0 0 0 0 0 0 0 0 0 0 0 1 1 1 1 1 1 1 1 1 1
0 0 0 0 1 1 1 1 1 1 0 1 0 0 0 0 0 0 0 0 0 0 0 0 0 0 1 0 0 0 0 0 0 0 1 1 1 1 1 1 1 1 1
0 -0 0 -0 1 1 1 1 1 1 1 1 0 1 1 1 0 0 0 0 0 0 0 0 0 0 0 0 0 0 0 0 0 0 0 0 0 0 0 0 0 0 0
0 0 1 1 1 2 2 2 1 1 1 1 1 0 1 0 0 0 0 -0 -0 0 -0 -0 -0 -0 0 0 0 0 0 0 0 0 0 0 0 0 0 0 0 0 0
1 1 1 1 1 1 2 1 2 1 1 0 1 0 1 0 0 0 -0 -0 -0 -0 -0 -0 0 0 0 0 0 0 0 0 0 0 0 0 0 0 0 0 1 0 0
1 1 1 1 1 0 1 2 3 2 1 1 0 0 0 -0 -0 -0 -0 -0 0 0 0 0 0 0 0 0 0 0 0 0 0 0 0 0 0 0 0 0 1 0 0
1 1 1 1 1 1 0 0 0 1 1 1 0 -0 -0 -0 -0 -0 0 -0 0 0 0 0 0 0 0 0 0 0 0 0 0 0 0 0 0 0 0 0 0 1 0
2 2 2 1 1 0 0 0 0 0 0 0 0 -0 -0 -0 0 0 0 0 0 0 0 0 0 0 0 -0 0 0 0 0 0 0 0 0 0 0 0 0 0 1 0
2 2 2 1 1 0 0 0 0 0 -0 -0 0 -0 -0 -0 0 0 0 0 0 0 0 0 0 0 0 0 0 0 0 0 0 0 0 0 0 0 0 0 0 0 0
1 1 2 1 1 1 0 0 0 0 0 0 0 0 0 0 0 0 0 0 0 0 0 0 -0 -0 0 0 0 0 0 0 0 0 0 0 0 0 0 0 0 0 0
1 1 1 0 1 1 0 0 0 0 0 0 0 0 0 0 0 0 0 0 0 0 0 -0 -0 -0 0 0 0 0 0 0 0 0 0 0 0 0 0 0 0 0 0
0 0 2 1 1 1 1 1 0 0 1 0 0 0 0 0 0 0 0 0 0 0 0 0 0 0 0 0 0 0 0 0 0 0 0 0 0 0 0 0 0 0 0
0 0 2 1 1 1 2 1 0 0 0 0 0 0 0 0 0 0 0 0 -0 -0 0 0 0 0 0 0 0 0 0 0 0 0 0 0 0 0 0 0 0 0 0
0 -0 1 0 1 -0 1 0 -0 0 0 0 0 0 0 0 0 0 0 0 0 0 0 0 0 0 0 0 0 0 0 0 0 0 0 0 0 0 0 0 0 0 0
-0 0 0 1 1 0 0 0 0 0 0 0 0 0 0 0 0 0 0 0 0 0 0 0 0 0 0 0 0 0 0 0 0 0 0 0 0 0 0 0 0 0 0
-0 0 0 0 0 1 0 0 0 0 0 0 0 0 0 0 0 0 0 0 0 0 0 0 0 0 0 0 0 0 0 0 0 0 0 0 0 0 0 0 0 0 0
-0 0 0 0 0 0 0 0 0 0 0 0 0 0 0 0 0 0 0 0 0 0 0 0 0 0 0 0 0 0 0 0 0 0 0 0 0 0 0 0 0 0 0
-0 0 0 0 0 0 0 0 0 0 0 0 0 0 0 0 0 0 0 0 0 0 0 0 0 0 0 0 0 0 0 0 0 0 0 0 0 0 0 0 0 0 0
0 0 -0 0 0 -0 0 0 0 0 0 0 0 0 0 0 0 0 0 0 0 0 0 0 0 0 0 0 0 0 0 0 0 0 0 0 0 0 0 0 0 0 0
0 0 0 1 0 0 0 0 0 0 0 0 0 0 0 0 0 0 0 0 0 0 0 0 0 0 0 0 0 0 0 0 0 -0 0 0 0 0 0 0 0 0 0
Wind_Speed_500mb
40 35 34 33 33 35 36 43 34 33 33 26 32 33 30 25 23 22 25 12 17 18 19 11 17 20 18 18 19 16 20 21 26 25 22 17 17 21 24 24 28 30 29
40 40 37 37 37 34 32 37 37 36 32 33 32 32 33 31 29 30 28 26 27 24 22 20 20 19 26 19 25 25 25 28 21 27 28 29 29 31 33 31 30 28 32
45 42 39 40 41 40 39 36 38 38 37 34 35 35 32 30 29 30 28 26 29 30 28 26 26 28 27 27 30 28 25 26 28 32 28 27 28 25 29 30 37 28 30
47 47 46 44 44 41 41 43 40 42 40 37 38 40 33 28 29 28 27 28 26 29 31 31 31 34 33 33 30 34 33 35 33 37 36 36 30 29 32 36 35 27 36
55 51 57 47 45 45 47 45 43 39 34 34 39 37 32 31 32 31 30 28 28 30 29 31 33 36 36 41 39 31 38 29 31 34 39 38 32 39 37 33 27 32 40
60 56 51 51 48 48 51 49 45 40 40 34 34 35 34 33 38 41 36 26 31 27 29 33 37 32 37 42 45 47 47 48 49 40 38 45 47 47 39 49 52 49 50
61 60 57 54 51 50 52 50 45 45 42 40 35 39 37 38 42 45 43 39 32 28 31 37 33 28 31 31 31 38 40 42 45 46 50 48 46 44 44 47 45 45 50
61 62 60 56 51 49 49 51 49 44 44 41 39 37 35 34 40 38 36 34 44 35 31 29 33 31 33 36 34 30 31 34 38 37 40 41 37 38 40 41 43 47 44
60 64 65 61 54 49 46 45 45 45 43 42 37 41 40 38 37 39 38 36 27 30 27 35 35 35 24 34 37 31 29 31 33 40 43 38 42 43 44 45 41 37 43
59 61 63 63 57 52 46 42 42 44 42 40 38 34 29 25 29 30 31 31 22 23 28 25 22 21 25 31 29 24 27 28 27 33 34 38 39 44 37 38 37 37 38
51 53 59 62 60 56 47 49 45 43 38 35 35 33 41 43 36 34 33 22 21 21 20 20 28 27 24 31 36 39 37 38 39 39 37 36 35 34 32 33 37 36 40
51 55 56 59 59 52 62 59 53 40 38 35 29 27 23 30 33 32 29 23 25 22 17 18 26 24 31 41 44 40 40 42 39 35 37 38 37 34 32 32 33 43 41
52 55 59 59 57 58 63 64 61 55 52 40 31 28 23 32 24 26 26 23 23 23 19 28 36 41 44 37 32 32 38 39 28 28 32 35 34 34 40 43 47 50 48
57 59 61 66 63 54 51 58 58 47 59 60 50 35 28 32 24 25 21 23 22 24 24 24 27 28 27 19 30 26 30 24 20 28 32 32 31 31 33 34 36 35 36
61 65 66 59 59 51 50 48 55 56 43 41 46 35 31 30 26 25 19 12 14 16 14 18 25 26 27 27 29 29 29 29 28 23 23 28 28 30 34 33 36 35 41
59 61 60 54 56 50 46 48 52 42 45 43 38 37 36 33 30 32 32 28 30 30 31 24 25 28 29 31 31 28 27 28 24 35 30 25 26 29 30 25 31 36 34
55 63 65 64 55 50 47 40 44 49 43 46 46 35 32 36 37 30 29 28 29 30 30 23 26 28 29 29 24 31 30 25 31 24 24 26 24 24 24 23 28 20 20
29 60 67 69 53 56 58 46 41 38 38 44 46 44 45 40 29 27 27 27 27 27 24 20 21 23 28 24 30 28 24 24 25 24 23 23 23 21 21 24 24 24 26
58 61 54 39 48 47 42 40 40 38 35 33 39 43 40 33 28 26 26 25 19 20 22 24 25 26 25 31 29 28 24 27 25 23 26 28 22 22 21 22 25 33 34
40 76 53 47 41 45 44 42 43 39 31 38 30 28 41 32 26 27 27 26 19 17 17 19 22 31 35 26 28 37 34 39 33 25 23 22 22 23 21 21 22 24 25
55 23 16 16 27 38 42 41 36 40 37 40 23 31 21 25 19 18 15 12 14 13 14 18 24 26 22 25 25 27 22 22 19 25 20 26 19 19 24 22 24 22 21
35 20 22 36 41 48 43 35 39 40 32 32 31 35 26 30 20 19 18 18 17 15 15 17 16 13 16 22 20 17 16 17 18 19 17 18 18 18 19 13 12 13 11
40 30 39 44 40 5 26 34 36 33 37 38 34 29 37 28 21 21 20 19 18 18 16 16 15 13 13 15 14 17 15 12 12 11 11 8 10 9 9 8 6 3 5
46 45 41 46 27 22 29 32 34 36 38 36 33 27 26 24 21 22 21 20 19 17 16 17 14 15 13 9 10 11 10 8 5 2 6 4 8 3 5 11 11 5 7
37 35 42 37 43 42 40 39 36 36 35 35 35 32 27 25 24 24 22 20 20 18 18 18 16 15 13 13 13 18 23 17 8 15 11 10 9 13 12 6 3 2 6
38 49 51 48 41 46 37 40 38 38 40 38 36 33 30 28 24 23 22 21 20 19 19 19 17 20 17 11 12 11 9 5 8 19 17 7 5 5 4 7 9 8 12
Wind_Direction_500mb
190 192 193 191 194 191 186 185 187 191 207 173 184 193 202 213 220 225 203 231 219 237 249 250 262 257 247 251 260 255 257 263 267 271 271 279 285 285 267 267 281 283 272
196 197 193 191 190 197 193 192 192 197 203 204 201 199 207 215 225 229 235 229 242 249 254 246 254 261 267 280 264 267 266 268 275 282 270 272 276 272 272 274 269 267 266
198 199 195 194 192 191 195 195 197 199 207 203 212 210 205 215 223 230 233 243 248 243 245 247 253 258 260 258 260 268 268 269 269 259 269 270 275 276 274 286 280 275 284
197 199 198 197 196 192 196 195 200 205 207 200 208 213 208 211 222 232 241 245 242 243 246 244 255 262 264 265 262 260 264 270 272 277 276 271 274 277 279 278 278 280 282
200 199 201 202 198 194 197 199 197 206 205 208 205 216 213 217 228 238 233 243 251 244 249 258 262 261 255 253 251 260 255 263 267 268 274 281 279 281 271 273 280 279 279
206 202 204 207 203 204 196 202 200 206 207 210 214 217 221 222 231 238 238 234 244 254 255 257 250 265 273 266 266 266 263 264 267 264 268 269 270 278 278 277 281 285 283
205 203 204 208 203 205 201 204 207 207 215 213 221 223 223 227 234 240 242 245 253 266 273 268 263 267 268 280 283 271 272 267 268 273 275 276 280 280 281 283 283 282 280
205 205 202 205 203 206 205 204 209 212 216 223 222 230 227 236 245 249 244 257 249 254 268 260 271 275 264 262 263 271 279 287 285 277 281 283 282 283 282 283 285 289 290
208 206 203 203 197 199 203 207 210 212 215 221 228 232 237 236 249 242 245 259 254 255 264 256 251 260 268 270 274 274 272 271 272 275 277 276 281 283 282 281 279 276 277
206 207 204 203 200 198 199 205 209 213 215 213 221 230 237 225 224 224 252 252 245 250 262 279 270 285 260 267 274 273 274 275 273 274 278 282 290 295 292 288 280 267 271
207 207 207 206 200 201 202 207 205 207 211 220 221 225 237 252 247 250 251 232 237 258 267 270 263 262 260 283 285 279 271 264 266 270 277 285 286 286 286 291 297 271 271
207 204 203 204 203 200 209 209 197 202 200 215 229 237 243 243 247 244 243 250 241 240 243 268 278 277 281 287 287 282 279 275 276 276 277 281 282 281 283 281 264 269 278
206 201 198 196 187 204 205 214 217 228 211 213 225 232 232 247 261 259 247 246 242 244 236 250 267 279 284 287 294 295 298 295 283 281 279 279 280 280 276 280 284 281 277
205 197 194 191 193 200 212 209 211 211 212 230 231 227 227 238 221 256 256 232 242 249 257 279 285 298 304 304 311 310 309 305 282 280 279 282 287 287 279 275 279 270 268
201 190 188 190 191 199 190 199 216 223 225 217 224 226 219 228 227 222 217 220 229 241 237 266 290 288 290 288 291 289 284 280 277 280 277 285 284 291 297 273 278 270 260
207 194 193 198 194 198 198 210 215 207 214 213 209 210 223 224 219 215 226 246 244 254 267 275 281 281 284 290 289 285 284 278 275 269 284 289 287 294 283 275 275 271 265
211 200 198 199 197 202 200 207 207 203 216 208 208 212 211 221 232 238 245 254 260 269 274 276 278 280 284 289 288 287 266 263 261 276 274 275 284 283 289 283 282 296 288
251 212 196 190 194 196 195 195 199 200 199 203 207 215 223 230 231 240 253 258 264 273 287 274 277 282 288 281 290 292 279 266 269 270 272 276 278 277 280 278 276 273 266
300 249 215 146 185 188 188 192 196 195 199 202 215 213 214 220 235 241 243 248 242 254 265 272 279 285 280 292 279 287 283 271 266 273 278 278 273 273 276 280 279 275 279
293 280 171 180 209 162 181 193 199 187 192 193 197 206 217 219 227 246 249 255 253 254 264 276 280 269 281 278 266 263 271 270 270 270 273 268 270 274 271 276 280 285 283
245 280 186 180 184 190 195 196 196 199 196 184 187 200 210 198 204 217 226 248 230 239 255 263 267 285 283 282 275 273 266 278 268 276 272 277 285 285 284 283 278 276 274
242 243 206 196 203 198 191 190 200 199 195 195 188 193 208 186 198 215 221 228 237 244 243 250 256 262 265 269 277 283 275 267 273 287 293 287 284 279 282 282 279 275 277
222 215 204 212 229 316 167 189 201 195 193 191 189 200 203 197 206 214 223 227 233 236 240 249 245 247 255 273 273 267 272 266 262 273 271 270 286 279 273 269 260 193 111
192 192 189 170 161 214 208 202 198 195 194 188 194 198 191 199 205 216 220 230 228 231 237 246 240 236 247 258 274 297 280 258 231 238 211 335 349 54 84 100 88 136 156
205 205 183 175 175 188 198 198 195 194 196 194 198 200 199 203 210 219 227 222 226 228 237 243 242 247 247 225 202 232 242 267 179 143 42 40 49 60 73 78 191 195 236
194 201 203 198 197 189 191 195 196 199 200 204 204 205 209 213 219 220 224 228 229 233 229 239 242 227 225 224 211 220 200 169 145 138 146 164 152 175 213 249 257 262 275
Wind_Speed_850mb
40 35 34 33 33 35 36 43 34 33 33 26 32 33 30 25 23 22 25 12 17 18 19 11 17 20 18 18 19 16 20 21 26 25 22 17 17 21 24 24 28 30 29
40 40 37 37 37 34 32 37 37 36 32 33 32 32 33 31 29 30 28 26 27 24 22 20 20 19 26 19 25 25 25 28 21 27 28 29 29 31 33 31 30 28 32
45 42 39 40 41 40 39 36 38 38 37 34 35 35 32 30 29 30 28 26 29 30 28 26 26 28 27 27 30 28 25 26 28 32 28 27 28 25 29 30 37 28 30
47 47 46 44 44 41 41 43 40 42 40 37 38 40 33 28 29 28 27 28 26 29 31 31 31 34 33 33 30 34 33 35 33 37 36 36 30 29 32 36 35 27 36
55 51 57 47 45 45 47 45 43 39 34 34 39 37 32 31 32 31 30 28 28 30 29 31 33 36 36 41 39 31 38 29 31 34 39 38 32 39 37 33 27 32 40
60 56 51 51 48 48 51 49 45 40 40 34 34 35 34 33 38 41 36 26 31 27 29 33 37 32 37 42 45 47 47 48 49 40 38 45 47 47 39 49 52 49 50
61 60 57 54 51 50 52 50 45 45 42 40 35 39 37 38 42 45 43 39 32 28 31 37 33 28 31 31 31 38 40 42 45 46 50 48 46 44 44 47 45 45 50
61 62 60 56 51 49 49 51 49 44 44 41 39 37 35 34 40 38 36 34 44 35 31 29 33 31 33 36 34 30 31 34 38 37 40 41 37 38 40 41 43 47 44
60 64 65 61 54 49 46 45 45 45 43 42 37 41 40 38 37 39 38 36 27 30 27 35 35 35 24 34 37 31 29 31 33 40 43 38 42 43 44 45 41 37 43
59 61 63 63 57 52 46 42 42 44 42 40 38 34 29 25 29 30 31 31 22 23 28 25 22 21 25 31 29 24 27 28 27 33 34 38 39 44 37 38 37 37 38
51 53 59 62 60 56 47 49 45 43 38 35 35 33 41 43 36 34 33 22 21 21 20 20 28 27 24 31 36 39 37 38 39 39 37 36 35 34 32 33 37 36 40
51 55 56 59 59 52 62 59 53 40 38 35 29 27 23 30 33 32 29 23 25 22 17 18 26 24 31 41 44 40 40 42 39 35 37 38 37 34 32 32 33 43 41
52 55 59 59 57 58 63 64 61 55 52 40 31 28 23 32 24 26 26 23 23 23 19 28 36 41 44 37 32 32 38 39 28 28 32 35 34 34 40 43 47 50 48
57 59 61 66 63 54 51 58 58 47 59 60 50 35 28 32 24 25 21 23 22 24 24 24 27 28 27 19 30 26 30 24 20 28 32 32 31 31 33 34 36 35 36
61 65 66 59 59 51 50 48 55 56 43 41 46 35 31 30 26 25 19 12 14 16 14 18 25 26 27 27 29 29 29 29 28 23 23 28 28 30 34 33 36 35 41
59 61 60 54 56 50 46 48 52 42 45 43 38 37 36 33 30 32 32 28 30 30 31 24 25 28 29 31 31 28 27 28 24 35 30 25 26 29 30 25 31 36 34
55 63 65 64 55 50 47 40 44 49 43 46 46 35 32 36 37 30 29 28 29 30 30 23 26 28 29 29 24 31 30 25 31 24 24 26 24 24 24 23 28 20 20
29 60 67 69 53 56 58 46 41 38 38 44 46 44 45 40 29 27 27 27 27 27 24 20 21 23 28 24 30 28 24 24 25 24 23 23 23 21 21 24 24 24 26
58 61 54 39 48 47 42 40 40 38 35 33 39 43 40 33 28 26 26 25 19 20 22 24 25 26 25 31 29 28 24 27 25 23 26 28 22 22 21 22 25 33 34
40 76 53 47 41 45 44 42 43 39 31 38 30 28 41 32 26 27 27 26 19 17 17 19 22 31 35 26 28 37 34 39 33 25 23 22 22 23 21 21 22 24 25
55 23 16 16 27 38 42 41 36 40 37 40 23 31 21 25 19 18 15 12 14 13 14 18 24 26 22 25 25 27 22 22 19 25 20 26 19 19 24 22 24 22 21
35 20 22 36 41 48 43 35 39 40 32 32 31 35 26 30 20 19 18 18 17 15 15 17 16 13 16 22 20 17 16 17 18 19 17 18 18 18 19 13 12 13 11
40 30 39 44 40 5 26 34 36 33 37 38 34 29 37 28 21 21 20 19 18 18 16 16 15 13 13 15 14 17 15 12 12 11 11 8 10 9 9 8 6 3 5
46 45 41 46 27 22 29 32 34 36 38 36 33 27 26 24 21 22 21 20 19 17 16 17 14 15 13 9 10 11 10 8 5 2 6 4 8 3 5 11 11 5 7
37 35 42 37 43 42 40 39 36 36 35 35 35 32 27 25 24 24 22 20 20 18 18 18 16 15 13 13 13 18 23 17 8 15 11 10 9 13 12 6 3 2 6
38 49 51 48 41 46 37 40 38 38 40 38 36 33 30 28 24 23 22 21 20 19 19 19 17 20 17 11 12 11 9 5 8 19 17 7 5 5 4 7 9 8 12
Wind_Direction_850mb
190 192 193 191 194 191 186 185 187 191 207 173 184 193 202 213 220 225 203 231 219 237 249 250 262 257 247 251 260 255 257 263 267 271 271 279 285 285 267 267 281 283 272
196 197 193 191 190 197 193 192 192 197 203 204 201 199 207 215 225 229 235 229 242 249 254 246 254 261 267 280 264 267 266 268 275 282 270 272 276 272 272 274 269 267 266
198 199 195 194 192 191 195 195 197 199 207 203 212 210 205 215 223 230 233 243 248 243 245 247 253 258 260 258 260 268 268 269 269 259 269 270 275 276 274 286 280 275 284
197 199 198 197 196 192 196 195 200 205 207 200 208 213 208 211 222 232 241 245 242 243 246 244 255 262 264 265 262 260 264 270 272 277 276 271 274 277 279 278 278 280 282
200 199 201 202 198 194 197 199 197 206 205 208 205 216 213 217 228 238 233 243 251 244 249 258 262 261 255 253 251 260 255 263 267 268 274 281 279 281 271 273 280 279 279
206 202 204 207 203 204 196 202 200 206 207 210 214 217 221 222 231 238 238 234 244 254 255 257 250 265 273 266 266 266 263 264 267 264 268 269 270 278 278 277 281 285 283
205 203 204 208 203 205 201 204 207 207 215 213 221 223 223 227 234 240 242 245 253 266 273 268 263 267 268 280 283 271 272 267 268 273 275 276 280 280 281 283 283 282 280
205 205 202 205 203 206 205 204 209 212 216 223 222 230 227 236 245 249 244 257 249 254 268 260 271 275 264 262 263 271 279 287 285 277 281 283 282 283 282 283 285 289 290
208 206 203 203 197 199 203 207 210 212 215 221 228 232 237 236 249 242 245 259 254 255 264 256 251 260 268 270 274 274 272 271 272 275 277 276 281 283 282 281 279 276 277
206 207 204 203 200 198 199 205 209 213 215 213 221 230 237 225 224 224 252 252 245 250 262 279 270 285 260 267 274 273 274 275 273 274 278 282 290 295 292 288 280 267 271
207 207 207 206 200 201 202 207 205 207 211 220 221 225 237 252 247 250 251 232 237 258 267 270 263 262 260 283 285 279 271 264 266 270 277 285 286 286 286 291 297 271 271
207 204 203 204 203 200 209 209 197 202 200 215 229 237 243 243 247 244 243 250 241 240 243 268 278 277 281 287 287 282 279 275 276 276 277 281 282 281 283 281 264 269 278
206 201 198 196 187 204 205 214 217 228 211 213 225 232 232 247 261 259 247 246 242 244 236 250 267 279 284 287 294 295 298 295 283 281 279 279 280 280 276 280 284 281 277
205 197 194 191 193 200 212 209 211 211 212 230 231 227 227 238 221 256 256 232 242 249 257 279 285 298 304 304 311 310 309 305 282 280 279 282 287 287 279 275 279 270 268
201 190 188 190 191 199 190 199 216 223 225 217 224 226 219 228 227 222 217 220 229 241 237 266 290 288 290 288 291 289 284 280 277 280 277 285 284 291 297 273 278 270 260
207 194 193 198 194 198 198 210 215 207 214 213 209 210 223 224 219 215 226 246 244 254 267 275 281 281 284 290 289 285 284 278 275 269 284 289 287 294 283 275 275 271 265
211 200 198 199 197 202 200 207 207 203 216 208 208 212 211 221 232 238 245 254 260 269 274 276 278 280 284 289 288 287 266 263 261 276 274 275 284 283 289 283 282 296 288
251 212 196 190 194 196 195 195 199 200 199 203 207 215 223 230 231 240 253 258 264 273 287 274 277 282 288 281 290 292 279 266 269 270 272 276 278 277 280 278 276 273 266
300 249 215 146 185 188 188 192 196 195 199 202 215 213 214 220 235 241 243 248 242 254 265 272 279 285 280 292 279 287 283 271 266 273 278 278 273 273 276 280 279 275 279
293 280 171 180 209 162 181 193 199 187 192 193 197 206 217 219 227 246 249 255 253 254 264 276 280 269 281 278 266 263 271 270 270 270 273 268 270 274 271 276 280 285 283
245 280 186 180 184 190 195 196 196 199 196 184 187 200 210 198 204 217 226 248 230 239 255 263 267 285 283 282 275 273 266 278 268 276 272 277 285 285 284 283 278 276 274
242 243 206 196 203 198 191 190 200 199 195 195 188 193 208 186 198 215 221 228 237 244 243 250 256 262 265 269 277 283 275 267 273 287 293 287 284 279 282 282 279 275 277
222 215 204 212 229 316 167 189 201 195 193 191 189 200 203 197 206 214 223 227 233 236 240 249 245 247 255 273 273 267 272 266 262 273 271 270 286 279 273 269 260 193 111
192 192 189 170 161 214 208 202 198 195 194 188 194 198 191 199 205 216 220 230 228 231 237 246 240 236 247 258 274 297 280 258 231 238 211 335 349 54 84 100 88 136 156
205 205 183 175 175 188 198 198 195 194 196 194 198 200 199 203 210 219 227 222 226 228 237 243 242 247 247 225 202 232 242 267 179 143 42 40 49 60 73 78 191 195 236
194 201 203 198 197 189 191 195 196 199 200 204 204 205 209 213 219 220 224 228 229 233 229 239 242 227 225 224 211 220 200 169 145 138 146 164 152 175 213 249 257 262 275